COSMOS 1275 DEB

Satellite information

Favourite Embed

Satellite Type and Status

DEBRISIN ORBIT

Key statistics

Satellite COSMOS 1275 DEB at a glance.

Uptime

16264

Days in orbit

Revolutions

≈ 14.2

Per day

Orbit

LEO

Low Earth Orbit

Inclination

82.8

Latest

Satellite identification and parameters

Extended collection of information and parameters for COSMOS 1275 DEB.

Object identification

Identified? True

Debris? True

Object name: COSMOS 1275 DEB

International designator: 1981-053TC

Object number (NORAD): 42188

Object ID (CCSDS): 42188

Country: COMMONWEALTH OF INDEPENDENT STATES (CIS)

Current information (Y/N): Y

RCS size: SMALL

Orbital parameters

Period: 101.745 minutes

Inclination: 82.8477 deg

SMA: 7219.423 km

Apoapsis: 878.413 km

Periapsis: 804.162 km

RAAN: 276.9157 deg

Eccentricy: 0.0051425

Argument of periapsis: 314.7089 deg

Mean anomaly: 44.9906 deg

Mean motion: 14.15301831 rev/day

Mean motion (dot): 0.00005812 rev/day2

B* drag term: 0.0029406496 1/REarth

Two-line elements (TLE)

Creation date: Dec. 12, 2025, 10:14 a.m.

Reference frame: TEME

Reference center: EARTH

Epoch: Dec. 12, 2025, 5:28 a.m. UTC

TLE line 0: 0 COSMOS 1275 DEB

TLE line 1: 1 42188U 81053TC 25346.22789614 .00005812 00000-0 29406-2 0 9998

TLE line 2: 2 42188 82.8477 276.9157 0051425 314.7089 44.9906 14.15301831618113

Live tracking on map

Real-time ground track for satellite COSMOS 1275 DEB.

In-orbit conjunctions

A list of the most updated potential collisions computed for object COSMOS 1275 DEB.

Target Orbit TCA Probability of collision Miss distance Type
CZ-6A DEB LEO 2025-03-16 19:16:50 0.001748389 20.0 (m) DEBRIS
DMSP 5D-2 F13 DEB SSO 2024-12-13 12:19:53 0.0001964344 138.0 (m) DEBRIS
FENGYUN 1C DEB SSO 2024-11-09 09:17:48 0.0001422999 517.0 (m) DEBRIS

Associated space launch

Navigation satellite providing location information for the Tsiklon-B navigation system

COSMOS 1275 DEB was lifted into orbit during the mission ‘Kosmos-3M | Parus 27’, on board a Kosmos-3M space rocket.

The launch took place on June 4, 1981, 3:41 p.m. from 132/2.

For more information about the launch, click the button.

Launch to space Kosmos-3M | Parus 27
Kosmos-3M | Parus 27

Agency: N/A

Status: Launch Successful

Launch date: June 4, 1981, 3:41 p.m. UTC

Rocket: Kosmos-3M

Launch pad: 132/2

Location: Plesetsk Cosmodrome, Russian Federation

...

Latest news about this satellite

There are no fresh news available about this satellite. Check back as we update our databases every day.


Newsletter sign-up

Weekly statistics, charts and insights to help you stay on top of the space industry.